Regional Weather Roundup
Issued by NWS

Home | Current Version | Previous Version | Graphics & Text | Print | Product List | Glossary On
Versions: 1 2 3 4 5 6 7 8 9 10 11 12 13 14 15 16 17 18 19 20 21 22 23 24 25 26 27 28 29 30 31 32 33 34 35 36 37 38 39 40 41 42 43 44 45 46 47 48 49 50
000
ASUS45 KTFX 240004
RWRMT
MONTANA HOURLY WEATHER ROUNDUP
NATIONAL WEATHER SERVICE GREAT FALLS MT
604 PM MDT WED APR 23 2014

NOTE: "FAIR" INDICATES FEW OR NO CLOUDS BELOW 12000 FEET WITH NO
SIGNIFICANT WEATHER AND/OR OBSTRUCTIONS TO VISIBILITY.

* THESE STATIONS ARE NOT UNDER NWS QUALITY CONTROL. THEY DO NOT
   REPORT WEATHER SUCH AS PRECIPITATION OR FOG.

MTZ001>007-043-240100-
WEST OF THE DIVIDE
CITY           SKY/WX    TMP DP  RH WIND       PRES   REMARKS
KALISPELL      MOCLDY    48  27  44 SW17G22   29.74R
MISSOULA       CLOUDY    45  32  60 W12       29.85R
BUTTE          PTCLDY    41  21  45 SW17G23   29.82S
MULLAN PASS    LGT SNOW  28  27  96 VRB7G17   29.78S WCI  21
* ESSEX        N/A       41  24  51 E2G9       N/A
* LINCOLN      N/A       41  22  47 SW8G22     N/A
* LOOKOUT PASS N/A       33  31  92 NE4G10     N/A
* POLSON       N/A       46  26  46 SW4G12     N/A
* SEELEY LAKE  N/A       41  29  62 SW5G20     N/A
* THOMP F APT  MOCLDY    40  19  43 SW7G27     N/A   WCI  35
$$

MTZ008-052>055-240100-
SOUTHWEST MONTANA
CITY           SKY/WX    TMP DP  RH WIND       PRES   REMARKS
BOZEMAN        MOCLDY    46  23  40 SW26G31   29.81S
DILLON         PTCLDY    45  27  49 W16       29.83F
W YELLOWSTONE  N/A       39  22  51 SW7G14     N/A   WCI  34
* BOULDER HILL N/A       38  16  41 S11G18     N/A   WCI  31
* MONIDA PASS  N/A       34  22  61 S11G16     N/A   WCI  26
* RAYNOLDS PAS N/A       36  22  57 S8G14      N/A   WCI  30
* WHITEHALL    N/A       48  25  41 W16G29     N/A
* WISE RIVER   N/A       36  31  82 W12G20     N/A   WCI  28
$$

MTZ009>010-012-014-046-048-049-054-240100-
EAST SLOPES AND CENTRAL MONTANA
CITY           SKY/WX    TMP DP  RH WIND       PRES   REMARKS
CUT BANK       PTCLDY    46  21  37 W31G39    29.62R
GREAT FALLS    MOCLDY    48  27  44 SW29G36   29.70R
HELENA         MOCLDY    48  18  30 W15G29    29.76R
MALMSTROM AFB  MOCLDY    46  23  40 SW18G31   29.68R
* DEARBORN     N/A       48  22  36 S20G28     N/A
* EAST GLACIER N/A       36  20  52 W24G35     N/A   WCI  24
* MONARCH      N/A       39  13  34 SW19G29    N/A   WCI  29
* PENDROY      N/A       41  19  41 W24G30     N/A
* ROGERS PASS  N/A       31  26  82 SE10G24    N/A   WCI  22
* SAINT MARY   N/A       38  25  60 SW8G19     N/A   WCI  32
* SWEET GRASS  N/A       50  15  25 SW29G42    N/A
$$

MTZ011-013-016-021-035-040-045-047-050-051-240100-
NORTH CENTRAL MONTANA
CITY           SKY/WX    TMP DP  RH WIND       PRES   REMARKS
HAVRE          MOCLDY    55  19  24 W28G36    29.59R
LEWISTOWN      MOCLDY    48  18  30 W28G37    29.70R
* DENTON       N/A       50  15  25 SW25G43    N/A
* GEYSER       N/A       47  14  26 SW29G41    N/A
* JUDITH GAP   N/A       42  18  38 SW27G34    N/A
* LOMA         N/A       54  19  25 SW28G35    N/A
$$

MTZ017>020-022>027-061-062-240100-
NORTHEAST MONTANA
CITY           SKY/WX    TMP DP  RH WIND       PRES   REMARKS
GLASGOW        MOCLDY    59  19  21 W26G36    29.55S
GLENDIVE       CLEAR     57  23  27 W16G26    29.64R
JORDAN         CLEAR     57  16  20 W24G35    29.62R
SIDNEY         CLEAR     59  25  27 W20G28    29.60R
WOLF POINT     MOCLDY    61  19  20 W23G33    29.57R
* BEAVER HILL  N/A       56  22  27 W20G27     N/A
* LINDSAY DVD  N/A       55  20  25 W19G32     N/A
* NAVAJO       N/A       52  35  52 W13G18     N/A
* SACO         N/A       61  18  19 W28G35     N/A
$$

MTZ028>042-056>058-240100-
SOUTHCENTRAL AND SOUTHEAST MONTANA
CITY           SKY/WX    TMP DP  RH WIND       PRES   REMARKS
BAKER          FAIR      54  28  37 W21G31    29.68R
BILLINGS       PTCLDY    54  16  22 W30G43    29.73R
LIVINGSTON     CLOUDY    46  19  34 SW33G44   29.78R
MILES CITY     FAIR      57  19  23 W18G28    29.66S
* HYSHAM       N/A       56  13  18 W16G30     N/A
* LAME DEER    N/A       50  16  26 W22G31     N/A
* REED POINT   N/A       51  21  31 W21G28     N/A
* ROSCOE HILL  N/A       43  15  32 SW6G22     N/A
$$

REGIONAL REPORTS...DAKOTAS
CITY           SKY/WX    TMP DP  RH WIND       PRES   REMARKS
WILLISTON      CLOUDY    54  39  57 NW10      29.57S
DICKINSON      PTCLDY    55  27  34 W23G29    29.61R
CROSBY         LGT RAIN  45  45 100 W14G23    29.55R
TIOGA          CLOUDY    46  46 100 W22       29.60R
WATFORD CITY   CLEAR     54  37  53 NW10      29.57R
BISMARCK       CLOUDY    54  39  57 W20G29    29.63R
GRAND FORKS    LGT RAIN  43  39  86 SE24G30   29.85S
FARGO          LGT RAIN  43  37  79 SE22G29   29.80F
BUFFALO SD     PTCLDY    55  32  42 W25G33    29.64R
RAPID CITY     MOCLDY    57  36  46 N25G37    29.65R
$$

REGIONAL REPORTS...WYOMING/IDAHO/WASHINGTON
CITY           SKY/WX    TMP DP  RH WIND       PRES   REMARKS
GILLETTE       MOCLDY    50  25  38 NW16      29.75R
SHERIDAN       MOCLDY    50  25  38 NW13      29.76R
CODY           PTCLDY    46  12  25 W10G16    29.81R
YELLOWSTONE LA MOCLDY    28  21  75 VRB3      29.90S
SALMON         PTCLDY    48  19  32 W15G24    29.86S
MULLAN PASS    LGT SNOW  28  27  96 VRB7G17   29.78S WCI  21
SPOKANE        MOCLDY    52  28  40 SW22G30   29.81R
$$

REGIONAL REPORTS...ALBERTA
CITY           SKY/WX    TMP DP  RH WIND       PRES   REMARKS
CALGARY        LGT RAIN  45  34  65 E12G17    29.51R

$$




USA.gov is the U.S. government's official web portal to all federal, state and local government web resources and services.